Location: Most
(50.5330°N, 13.6500°E)
Time: 03:16:01
(UTC+01:00)

ISS - Visible Passes

Search period start: 22 March 2023 00:00
Search period end: 01 April 2023 01:00
Orbit: 414 x 423 km, 51.6° (Epoch: 21 March)

Date Brightness Start Highest point End Pass type
(mag) Time Alt. Az. Time Alt. Az. Time Alt. Az.
22 Mar -3.7 20:17:54 10° W 20:21:15 71° N 20:21:37 62° NE visible
23 Mar -3.7 19:30:02 10° W 19:33:23 75° N 19:35:46 18° ENE visible
23 Mar -1.8 21:06:55 10° WNW 21:08:43 29° WNW 21:08:43 29° WNW visible
24 Mar -3.8 20:19:03 10° W 20:22:25 76° N 20:22:48 65° ENE visible
25 Mar -3.6 19:31:09 10° W 19:34:30 71° N 19:36:50 18° E visible
25 Mar -1.9 21:07:59 10° WNW 21:09:46 28° W 21:09:46 28° W visible
26 Mar -3.9 21:20:04 10° WNW 21:23:25 78° SSW 21:23:46 66° SE visible
27 Mar -3.8 20:32:06 10° WNW 20:35:28 87° NNE 20:37:46 19° ESE visible
27 Mar -1.6 22:09:02 10° W 22:10:42 22° WSW 22:10:42 22° WSW visible
28 Mar -3.2 21:20:58 10° W 21:24:11 44° SSW 21:24:40 40° S visible
29 Mar -3.5 20:32:56 10° WNW 20:36:14 60° SSW 20:38:39 17° SE visible
29 Mar -1.1 22:10:28 10° WSW 22:11:35 14° WSW 22:11:35 14° WSW visible
30 Mar -2.0 21:21:59 10° W 21:24:40 22° SW 21:25:35 20° SSW visible
31 Mar -2.4 20:33:44 10° W 20:36:46 32° SSW 20:39:36 11° SSE visible
